TimeEDT,TemperatureF,Dew PointF,Humidity,Sea Level PressureIn,VisibilityMPH,Wind Direction,Wind SpeedMPH,Gust SpeedMPH,PrecipitationIn,Events,Conditions,WindDirDegrees,DateUTC
12:53 AM,43.0,30.0,60,30.04,10.0,NW,8.1,-,N/A,,Overcast,320,2013-03-30 04:53:00
1:53 AM,43.0,30.9,62,30.04,10.0,NNW,5.8,-,N/A,,Overcast,330,2013-03-30 05:53:00
2:53 AM,43.0,30.9,62,30.04,10.0,NW,6.9,-,N/A,,Overcast,320,2013-03-30 06:53:00
3:53 AM,42.1,32.0,67,30.04,10.0,NNW,4.6,-,N/A,,Overcast,330,2013-03-30 07:53:00
4:53 AM,41.0,33.1,73,30.04,10.0,NW,4.6,-,N/A,,Overcast,320,2013-03-30 08:53:00
5:53 AM,41.0,33.1,73,30.05,10.0,WNW,4.6,-,N/A,,Overcast,300,2013-03-30 09:53:00
6:53 AM,41.0,30.9,67,30.06,10.0,NW,4.6,-,N/A,,Overcast,320,2013-03-30 10:53:00
7:53 AM,42.1,30.9,65,30.07,10.0,NW,9.2,-,N/A,,Clear,310,2013-03-30 11:53:00
8:53 AM,44.1,28.9,55,30.07,10.0,NW,11.5,16.1,N/A,,Clear,320,2013-03-30 12:53:00
9:53 AM,46.9,28.0,48,30.08,10.0,NW,8.1,-,N/A,,Clear,320,2013-03-30 13:53:00
10:53 AM,48.9,26.1,41,30.08,10.0,WNW,8.1,-,N/A,,Clear,290,2013-03-30 14:53:00
11:53 AM,51.1,23.0,33,30.06,10.0,Variable,4.6,-,N/A,,Clear,0,2013-03-30 15:53:00
12:53 PM,53.1,19.9,27,30.05,10.0,Variable,6.9,-,N/A,,Clear,0,2013-03-30 16:53:00
1:53 PM,51.1,25.0,36,30.04,10.0,Variable,5.8,-,N/A,,Clear,0,2013-03-30 17:53:00
2:53 PM,52.0,28.0,40,30.02,10.0,South,12.7,-,N/A,,Clear,180,2013-03-30 18:53:00
3:53 PM,50.0,30.9,48,30.02,10.0,South,10.4,-,N/A,,Clear,180,2013-03-30 19:53:00
4:53 PM,48.0,30.9,52,30.02,10.0,South,8.1,-,N/A,,Partly Cloudy,180,2013-03-30 20:53:00
5:53 PM,50.0,27.0,41,30.02,10.0,SSW,4.6,-,N/A,,Scattered Clouds,210,2013-03-30 21:53:00
6:53 PM,48.0,27.0,44,30.03,10.0,SSW,6.9,-,N/A,,Partly Cloudy,200,2013-03-30 22:53:00
7:53 PM,44.1,28.9,55,30.05,10.0,SSW,3.5,-,N/A,,Clear,200,2013-03-30 23:53:00
8:53 PM,43.0,28.9,58,30.08,10.0,Calm,Calm,-,N/A,,Clear,0,2013-03-31 00:53:00
9:53 PM,37.9,28.0,68,30.10,10.0,Calm,Calm,-,N/A,,Clear,0,2013-03-31 01:53:00
10:53 PM,37.0,26.1,65,30.10,10.0,Calm,Calm,-,N/A,,Clear,0,2013-03-31 02:53:00
11:53 PM,35.1,26.1,70,30.11,10.0,Calm,Calm,-,N/A,,Clear,0,2013-03-31 03:53:00